Pocatello, ID

8:47 PM MDT on June 23, 2017 (GMT -0600)
Pocatello Regional

Weather History for KPIH - February, 2015

Change the Weather History Date:

Sunday, February 22, 2015

  Actual Average Record
Temperature  
Mean Temperature 25 °F 30 °F  
Max Temperature 36 °F 40 °F 62 °F (1958)
Min Temperature 14 °F 21 °F -6 °F (1952)
Degree Days  
Heating Degree Days 40 35  
Month to date heating degree days 541 827  
Since 1 July heating degree days 4148 5074  
Cooling Degree Days 0 0  
Month to date cooling degree days 0 0  
Year to date cooling degree days 0 0  
Moisture  
Dew Point 2 °F    
Average Humidity 44    
Maximum Humidity 55    
Minimum Humidity 32    
Precipitation  
Precipitation 0.00 in 0.04 in 0.30 in (1948)
Month to date precipitation 0.67 0.74  
Year to date precipitation 1.10 1.73  
Snow  
Snow 0.00 in - - ()
Month to date snowfall 2.1  
Since 1 July snowfall 14.8  
Snow Depth 0.00 in    
Sea Level Pressure  
Sea Level Pressure 30.28 in    
Wind  
Wind Speed 16 mph (NE)    
Max Wind Speed 24 mph    
Max Gust Speed 33 mph    
Visibility 10 miles    
Events      
T = Trace of Precipitation, MM = Missing Value Source: NWS Daily Summary

Daily Weather History Graph

Daily Weather History Graph

Search for Another Location

Airport or City:

Trip Planner

Search our weather history database for the weather conditions in past years. The results will help you decide how hot, cold, wet, or windy it might be!

Date:

Astronomy

Feb. 22, 2015 Rise Set
Actual Time 7:17 AM MST 6:10 PM MST
Civil Twilight 6:48 AM MST 6:39 PM MST
Nautical Twilight 6:16 AM MST 7:12 PM MST
Astronomical Twilight 5:43 AM MST 7:45 PM MST
Moon 9:24 AM MST (2/22) 11:05 PM MST (2/22)
Length of Visible Light 11h 50m
Length of Day
10h 53m
Waxing Crescent, 20% of the Moon is Illuminated
Feb 22
Waxing Crescent
Feb 25
First Quarter
Mar 5
Full
Mar 13
Last Quarter
Mar 20
New

Hourly Weather History & Observations

Time (MST) Temp. Windchill Dew Point Humidity Pressure Visibility Wind Dir Wind Speed Gust Speed Precip Events Conditions
12:53 AM 21.0 °F 7.1 °F 1.0 °F 42% 30.29 in 10.0 mi NE 16.1 mph 26.5 mph N/A   Clear
1:53 AM 19.9 °F 3.2 °F 1.0 °F 44% 30.28 in 10.0 mi NE 23.0 mph 29.9 mph N/A   Clear
2:53 AM 19.0 °F 4.0 °F 1.0 °F 46% 30.29 in 10.0 mi NE 17.3 mph 26.5 mph N/A   Mostly Cloudy
3:53 AM 17.1 °F 2.0 °F 1.0 °F 50% 30.27 in 10.0 mi NE 16.1 mph 21.9 mph N/A   Mostly Cloudy
4:53 AM 16.0 °F 2.9 °F -0.0 °F 49% 30.28 in 10.0 mi NE 11.5 mph - N/A   Partly Cloudy
5:53 AM 15.1 °F 1.1 °F -0.9 °F 49% 30.30 in 10.0 mi NE 12.7 mph - N/A   Clear
6:53 AM 14.0 °F 1.2 °F -0.9 °F 52% 30.31 in 10.0 mi NE 10.4 mph - N/A   Partly Cloudy
7:53 AM 15.1 °F -0.6 °F -2.0 °F 47% 30.33 in 10.0 mi NE 16.1 mph 25.3 mph N/A   Partly Cloudy
8:53 AM 18.0 °F 0.6 °F -2.9 °F 40% 30.33 in 10.0 mi NE 23.0 mph 26.5 mph N/A   Clear
9:53 AM 21.2 °F 5.2 °F -2.2 °F 36% 30.20 in 10.0 mi NE 21.9 mph 27.6 mph N/A   Clear
10:53 AM 25.0 °F 12.2 °F 1.0 °F 36% 30.30 in 10.0 mi NE 16.1 mph - N/A   Clear
11:53 AM 28.9 °F 16.1 °F 3.9 °F 35% 30.27 in 10.0 mi NNE 19.6 mph 27.6 mph N/A   Clear
12:53 PM 32.0 °F 20.8 °F 7.0 °F 35% 30.24 in 10.0 mi NE 17.3 mph - N/A   Partly Cloudy
1:53 PM 34.0 °F 23.4 °F 8.1 °F 34% 30.22 in 10.0 mi NNE 17.3 mph 25.3 mph N/A   Partly Cloudy
2:53 PM 35.1 °F 25.2 °F 8.1 °F 33% 30.21 in 10.0 mi NNE 16.1 mph 25.3 mph N/A   Partly Cloudy
3:53 PM 35.1 °F 24.5 °F 8.1 °F 33% 30.22 in 10.0 mi NNE 18.4 mph 27.6 mph N/A   Partly Cloudy
4:53 PM 34.0 °F 24.2 °F 7.0 °F 32% 30.22 in 10.0 mi NE 15.0 mph 24.2 mph N/A   Partly Cloudy
5:53 PM 30.9 °F 19.8 °F 6.1 °F 35% 30.24 in 10.0 mi NNE 16.1 mph - N/A   Partly Cloudy
6:53 PM 27.0 °F 15.6 °F -0.9 °F 30% 30.28 in 10.0 mi NNE 13.8 mph - N/A   Clear
7:53 PM 25.0 °F 13.6 °F -2.0 °F 31% 30.31 in 10.0 mi NNE 12.7 mph - N/A   Clear
8:53 PM 24.1 °F 11.0 °F -0.9 °F 34% 30.32 in 10.0 mi NE 16.1 mph - N/A   Clear
9:53 PM 21.9 °F 8.2 °F 1.0 °F 40% 30.33 in 10.0 mi NNE 16.1 mph - N/A   Clear
10:53 PM 19.9 °F 5.7 °F 1.0 °F 44% 30.34 in 10.0 mi NE 16.1 mph - N/A   Clear
11:53 PM 19.0 °F 5.6 °F 1.9 °F 47% 30.34 in 10.0 mi NE 13.8 mph - N/A   Clear